Tracking 28790 objects as of 19-Apr-2024
HD Live streaming from Space Station
objects crossing your sky now

COSMOS 2251 DEB

Track COSMOS 2251 DEB now!
10-day predictions


NORAD ID: 34910
Int'l Code: 1993-036ADF
Perigee: 775.6 km
Apogee: 1,488.6 km
Inclination: 73.9 °
Period: 107.8 minutes
Semi major axis: 7503 km
RCS: 0.0036 m2 (small)
Launch date: June 16, 1993
Source: Commonwealth of Independent States (former USSR) (CIS)
Launch site: PLESETSK MISSILE AND SPACE COMPLEX (PKMTR)

Note: This is SATELLITE DEBRIS
Your satellite tracking list
Your tracking list is empty




NASA's NSSDC Master Catalog

Two Line Element Set (TLE):
1 34910U 93036ADF 24107.98060279  .00001372  00000-0  14311-2 0  9998
2 34910  73.8773 334.5521 0475136 196.1717 232.3526 13.35805265734426
Source of the keplerian elements: AFSPC